Powrót do katalogu

STARLINK-32393

AktywnyŁącznośćVLEO
NORAD 61862·PAYLOAD·🇺🇸 United States

Wystrzelony Nov 7, 2024 z Cape Canaveral Space Force Station

Loading…

Następne Przeloty (najbliższe 24 godziny)

TLE

ŚwieżeSource: CelesTrak SupGP

Epoka: Sep 14, 2026, 22:52 UTC

1 61862C 24202T   26257.95326389  .00034670  00000+0  12558-2 0  2579
2 61862  43.0027 249.1933 0001270 266.6900  44.4608 15.27559480    14

Śledź STARLINK-32393 w czasie rzeczywistym z AllMySat

Download on the App Store